Flight Track Log - Related Links

Times and Time Zones

All times are in EDT time to prevent confusion due to time zone crossing. See the N860BA flight status page for this flight to view local times or setup timezone preferences in your user account.

Time Position Orientation Groundspeed Altitude Reporting Facility
EDT Latitude Longitude Course Direction KTS MPH feet Rate Location/Type
10:17AM 26.1975 -80.1656 85° East 141 162 300  Level Miami Center
10:17AM 26.2003 -80.1308 85° East 179 206 1,600 1,317 Climbing Miami Center
10:18AM 26.2097 -80.0894 76° East 203 234 2,100 1,086 Climbing Miami Center
10:19AM 26.2175 -80.0203 83° East 213 245 3,500 1,650 Climbing Miami Center
10:20AM 26.2256 -79.9369 84° East 239 275 5,400 2,200 Climbing Miami Center
10:21AM 26.2358 -79.8422 83° East 275 316 7,900 2,900 Climbing Miami Center
10:22AM 26.2544 -79.7503 77° East 300 345 11,200 3,050 Climbing Miami Center
10:23AM 26.3039 -79.6681 56° Northeast 300 345 14,000 1,850 Climbing Miami Center
10:24AM 26.3786 -79.5956 41° Northeast 330 380 14,900 850 Climbing Miami Center
10:25AM 26.4800 -79.5353 28° Northeast 363 418 15,700 800 Climbing Miami Center
10:26AM 26.5897 -79.4703 28° Northeast 406 467 16,500 800 Climbing Miami Center
10:27AM 26.7036 -79.3983 29° Northeast 444 511 17,300 750 Climbing Miami Center
10:28AM 26.8347 -79.3128 30° Northeast 481 554 18,000 650 Climbing Miami Center
10:29AM 26.9422 -79.2497 28° Northeast 487 560 18,600 700 Climbing Miami Center
10:30AM 27.0606 -79.1728 30° Northeast 487 560 19,400 800 Climbing Miami Center
10:31AM 27.1808 -79.0958 30° Northeast 487 560 20,200 800 Climbing Miami Center
10:32AM 27.3197 -79.0261 24° Northeast 492 566 21,000 750 Climbing Miami Center
10:33AM 27.4578 -79.0053 North 489 563 21,700 500 Climbing Miami Center
10:34AM 27.5958 -78.9844 North 494 568 22,000 200 Climbing Miami Center
10:35AM 27.7214 -78.9681 North 499 574 22,100 300 Climbing Miami Center
10:36AM 27.8617 -78.9472 North 504 580 22,600 550 Climbing Miami Center
10:37AM 27.9933 -78.9283 North 499 574 23,200 600 Climbing Miami Center
10:38AM 28.1336 -78.9050 North 493 567 23,800 600 Climbing Miami Center
10:39AM 28.2675 -78.8839 North 487 560 24,400 650 Climbing Miami Center
10:40AM 28.4056 -78.8650 North 487 560 25,100 650 Climbing Miami Center
10:41AM 28.5375 -78.8439 North 487 560 25,700 600 Climbing Miami Center
10:42AM 28.6692 -78.8225 North 482 555 26,300 650 Climbing Miami Center
10:43AM 28.8031 -78.8011 North 482 555 27,000 650 Climbing Miami Center
10:44AM 28.9408 -78.7822 North 482 555 27,600 600 Climbing Miami Center
10:45AM 29.0747 -78.7631 North 482 555 28,200 650 Climbing Miami Center
10:46AM 29.2106 -78.7417 North 482 555 28,900 650 Climbing Miami Center
10:47AM 29.3383 -78.7153 10° North 482 555 29,500 600 Climbing Miami Center
10:48AM 29.4742 -78.6961 North 482 555 30,100 600 Climbing Miami Center
10:49AM 29.6142 -78.6747 North 488 562 30,700 650 Climbing Miami Center
10:50AM 29.7417 -78.6481 10° North 483 556 31,400 643 Climbing Miami Center
10:52AM 29.9986 -78.6192 North 501 577 32,500 607 Climbing Jacksonville Center
10:53AM 30.1272 -78.5917 10° North 496 571 33,100 650 Climbing Jacksonville Center
10:54AM 30.2517 -78.5669 10° North 480 552 33,800 700 Climbing Jacksonville Center
10:55AM 30.3928 -78.5486 North 480 552 34,500 645 Climbing Jacksonville Center
10:56AM 30.5214 -78.5258 North 480 552 35,100 600 Climbing Jacksonville Center
10:57AM 30.6544 -78.5053 North 479 551 35,700 605 Climbing Jacksonville Center
10:58AM 30.7831 -78.4822 North 479 551 36,300 595 Climbing Jacksonville Center
10:59AM 30.9200 -78.4614 North 478 550 36,900 350 Climbing Jacksonville Center
11:00AM 31.0508 -78.4408 North 477 549 37,000 50 Climbing Jacksonville Center
11:01AM 31.1836 -78.4200 North 482 555 37,000  Level Jacksonville Center
11:02AM 31.3225 -78.3914 10° North 482 555 37,000  Level Jacksonville Center
11:03AM 31.4536 -78.3753 North 482 555 37,000  Level Jacksonville Center
11:04AM 31.5844 -78.3567 North 482 555 37,000  Level Jacksonville Center
11:05AM 31.7253 -78.3256 11° North 488 562 37,000  Level Jacksonville Center
11:06AM 31.8581 -78.3067 North 488 562 37,000  Level Jacksonville Center
11:07AM 31.9908 -78.2828 North 483 556 37,000  Level Jacksonville Center
11:08AM 32.1297 -78.2586 North 485 558 37,000  Level Jacksonville Center
11:09AM 32.2747 -78.2292 10° North 485 558 37,000  Level Jacksonville Center
11:10AM 32.4117 -78.2075 North 492 566 37,000  Level Jacksonville Center
11:11AM 32.5489 -78.1881 North 497 572 37,000  Level Jacksonville Center
11:12AM 32.6856 -78.1589 10° North 497 572 37,000  Level Jacksonville Center
11:13AM 32.8183 -78.1394 North 497 572 37,000  Level Jacksonville Center
11:14AM 32.9572 -78.1172 North 497 572 37,000  Level Jacksonville Center
11:15AM 33.0919 -78.0928 North 497 572 37,000  Level Jacksonville Center
11:16AM 33.2225 -78.0708 North 492 566 37,000 -50 Level Jacksonville Center
11:17AM 33.3533 -78.0489 North 480 552 36,900  Descending Jacksonville Center
11:18AM 33.4586 -78.0308 North 479 551 37,000 56 Climbing Washington Center
11:19AM 33.5925 -78.0075 North 485 558 37,000  Level Washington Center
11:20AM 33.7264 -77.9864 North 485 558 37,000  Level Washington Center
11:21AM 33.8606 -77.9625 North 485 558 37,000  Level Washington Center
11:22AM 33.9925 -77.9389 North 497 572 37,000  Level Washington Center
11:23AM 34.1306 -77.9125 North 503 579 37,000  Level Washington Center
11:24AM 34.2708 -77.8889 North 503 579 37,000  Level Washington Center
11:25AM 34.4131 -77.8753 North 508 585 37,000  Level Washington Center
11:26AM 34.5528 -77.8742 360° North 501 577 37,000 -49 Level Washington Center
11:27AM 34.6925 -77.8731 360° North 496 571 36,900  Descending Washington Center
11:28AM 34.8283 -77.8667 North 496 571 37,000 50 Climbing Washington Center
11:29AM 34.9681 -77.8656 360° North 496 571 37,000  Level Washington Center
11:30AM 35.1100 -77.8644 360° North 502 578 37,000  Level Washington Center
11:31AM 35.2519 -77.8608 North 502 578 37,000  Level Washington Center
11:32AM 35.4106 -77.8603 360° North 508 585 37,000  Level Washington Center
11:33AM 35.5506 -77.8564 North 508 585 37,000  Level Washington Center
11:34AM 35.6922 -77.8553 360° North 508 585 37,000  Level Washington Center
11:35AM 35.8342 -77.8517 North 508 585 37,000  Level Washington Center
11:36AM 35.9719 -77.8506 360° North 503 579 37,000  Level Washington Center
11:37AM 36.1097 -77.8494 360° North 497 572 37,000  Level Washington Center
11:38AM 36.2494 -77.8483 360° North 497 572 37,000  Level Washington Center
11:39AM 36.3872 -77.8469 360° North 497 572 37,000  Level Washington Center
11:40AM 36.5231 -77.8458 360° North 492 566 37,000  Level Washington Center
11:41AM 36.6628 -77.8447 360° North 492 566 37,000  Level Washington Center
11:42AM 36.8025 -77.8408 North 497 572 37,000  Level Washington Center
11:43AM 36.9383 -77.8397 360° North 497 572 37,000  Level Washington Center
11:44AM 37.0758 -77.8383 360° North 497 572 37,000  Level Washington Center
11:45AM 37.2122 -77.8033 12° North 497 572 37,000  Level Washington Center
11:46AM 37.3350 -77.7050 32° Northeast 504 580 37,000 -50 Level Washington Center
11:47AM 37.4556 -77.6089 32° Northeast 504 580 36,900 -407 Descending Washington Center
11:48AM 37.5781 -77.5125 32° Northeast 509 586 36,200 -885 Descending Washington Center
11:49AM 37.6944 -77.4131 34° Northeast 509 586 35,100 -1,073 Descending Washington Center
11:50AM 37.8167 -77.3161 32° Northeast 509 586 34,000 -605 Descending Washington Center
11:51AM 37.9411 -77.2189 32° Northeast 514 592 33,900  Descending Washington Center
11:52AM 38.0656 -77.1189 32° Northeast 520 598 34,000 -744 Climbing Washington Center
11:53AM 38.1878 -77.0208 32° Northeast 520 598 32,400 -1,462 Descending Washington Center
11:54AM 38.2844 -76.9433 32° Northeast 520 598 31,100 -1,525 Descending Washington Center
11:55AM 38.4233 -76.8292 33° Northeast 509 586 29,400 -1,537 Descending Washington Center
11:56AM 38.5411 -76.7358 32° Northeast 504 580 28,000 -1,438 Descending Washington Center
11:57AM 38.6544 -76.6417 33° Northeast 498 573 26,500 -1,488 Descending Washington Center
11:58AM 38.7656 -76.5503 33° Northeast 493 567 25,000 -1,261 Descending Washington Center
11:59AM 38.8789 -76.4583 32° Northeast 481 554 24,000 -504 Descending Washington Center
12:00PM 38.9964 -76.3608 33° Northeast 487 560 24,000  Level Washington Center
12:01PM 39.1158 -76.2603 33° Northeast 494 568 24,000  Level Washington Center
12:02PM 39.2206 -76.1517 39° Northeast 517 595 24,000 -1,262 Level Washington Center
12:04PM 39.4833 -75.9000 36° Northeast 448 516 19,900 -2,134 Descending Philadelphia TRACON
12:05PM 39.5667 -75.8167 38° Northeast 420 483 17,100 -2,550 Descending Philadelphia TRACON
12:06PM 39.6667 -75.7167 38° Northeast 399 459 14,800 -2,000 Descending Philadelphia TRACON
12:07PM 39.7500 -75.6500 32° Northeast 385 443 13,100 -857 Descending Philadelphia TRACON
12:08PM 39.8500 -75.5500 38° Northeast 405 466 13,000 -238 Descending Philadelphia TRACON
12:09PM 39.9500 -75.4667 33° Northeast 425 489 12,600 -500 Descending Philadelphia TRACON
12:10PM 40.0333 -75.3667 43° Northeast 418 481 12,000 -737 Descending Philadelphia TRACON
12:11PM 40.1167 -75.3000 31° Northeast 389 448 11,200 -1,105 Descending Philadelphia TRACON
12:12PM 40.2000 -75.2167 37° Northeast 332 382 9,900 -1,150 Descending Philadelphia TRACON
12:13PM 40.2667 -75.1667 30° Northeast 306 352 8,900 -971 Descending Philadelphia TRACON
12:14PM 40.3167 -75.1167 37° Northeast 304 350 8,200 -1,029 Descending New York TRACON
12:15PM 40.3833 -75.0333 44° Northeast 308 354 7,100 -600 Descending New York TRACON
12:16PM 40.4333 -74.9500 52° Northeast 294 338 7,000 -450 Descending New York TRACON
12:17PM 40.4833 -74.8667 52° Northeast 297 342 6,200 -1,000 Descending New York TRACON
12:18PM 40.5500 -74.8000 37° Northeast 300 345 5,000 -1,100 Descending New York TRACON
12:19PM 40.6167 -74.7333 37° Northeast 299 344 4,000 -500 Descending New York TRACON
12:20PM 40.6833 -74.6833 30° Northeast 298 343 4,000 -450 Level New York TRACON
12:21PM 40.7667 -74.6333 24° Northeast 302 348 3,100 -500 Descending New York TRACON
12:22PM 40.8333 -74.6000 21° North 283 326 3,000  Descending New York TRACON
12:23PM 40.9000 -74.5333 37° Northeast 281 323 3,100  Climbing New York TRACON
12:24PM 40.9167 -74.4500 75° East 252 290 3,000 -50 Descending New York TRACON
12:25PM 40.9333 -74.3667 75° East 252 290 3,000  Level New York TRACON
12:26PM 40.9667 -74.2667 66° East 252 290 3,000 -400 Level New York TRACON
12:27PM 40.9833 -74.1833 75° East 258 297 2,200 -500 Descending New York TRACON
12:28PM 41.0000 -74.1000 75° East 250 288 2,000 -50 Descending New York TRACON
12:29PM 40.9500 -74.0500 143° Southeast 198 228 2,100 -400 Climbing New York TRACON
12:30PM 40.9000 -74.0500 180° South 156 180 1,200 -850 Descending New York TRACON
12:31PM 40.8667 -74.0500 180° South 117 135 400 -800 Descending New York TRACON
12:33PM 40.8500 -74.0500 99° East  Level FlightAware Approximate
12:40PM 40.8501 -74.0608 99° East  Level Estimated

Login

Don't have an account? Register now (free) for customized features, flight alerts, and more!